| time (UTC) | temp F | wind direction | speed MPH | gust MPH | rain 1hr in | rain 24hr in | rain mn in | humidity % | barometer mb |
| 20260504234542 | 79 | 251 | 8.0 | 14.0 | 0.00 | 0.00 | 0.00 | 18 | 1012.5 |
| 20260504234044 | 79 | 281 | 8.0 | 16.0 | 0.00 | 0.00 | 0.00 | 18 | 1012.5 |
| 20260504233541 | 79 | 316 | 8.0 | 19.0 | 0.00 | 0.00 | 0.00 | 18 | 1012.6 |
| 20260504233041 | 79 | 246 | 9.0 | 19.0 | 0.00 | 0.00 | 0.00 | 18 | 1012.6 |
| 20260504232541 | 79 | 262 | 6.0 | 14.0 | 0.00 | 0.00 | 0.00 | 18 | 1012.4 |
| 20260504232041 | 79 | 312 | 8.0 | 16.0 | 0.00 | 0.00 | 0.00 | 17 | 1012.5 |
| 20260504231541 | 80 | 297 | 8.0 | 16.0 | 0.00 | 0.00 | 0.00 | 18 | 1012.5 |
| 20260504231041 | 80 | 292 | 6.0 | 16.0 | 0.00 | 0.00 | 0.00 | 18 | 1012.4 |
| 20260504230540 | 80 | 281 | 8.0 | 16.0 | 0.00 | 0.00 | 0.00 | 17 | 1012.4 |
| 20260504230040 | 80 | 286 | 8.0 | 18.0 | 0.00 | 0.00 | 0.00 | 17 | 1012.4 |
| 20260504225539 | 81 | 204 | 8.0 | 18.0 | 0.00 | 0.00 | 0.00 | 17 | 1012.3 |
| 20260504225040 | 81 | 331 | 8.0 | 16.0 | 0.00 | 0.00 | 0.00 | 17 | 1012.4 |
| 20260504224538 | 81 | 286 | 8.0 | 15.0 | 0.00 | 0.00 | 0.00 | 17 | 1012.5 |
| 20260504224041 | 81 | 290 | 7.0 | 14.0 | 0.00 | 0.00 | 0.00 | 16 | 1012.5 |
| 20260504223537 | 81 | 290 | 5.0 | 14.0 | 0.00 | 0.00 | 0.00 | 17 | 1012.5 |
| 20260504223036 | 81 | 261 | 8.0 | 14.0 | 0.00 | 0.00 | 0.00 | 17 | 1012.6 |
| 20260504222534 | 81 | 243 | 6.0 | 20.0 | 0.00 | 0.00 | 0.00 | 16 | 1012.7 |
| 20260504222034 | 80 | 286 | 11.0 | 20.0 | 0.00 | 0.00 | 0.00 | 16 | 1012.8 |
| 20260504221532 | 81 | 300 | 11.0 | 20.0 | 0.00 | 0.00 | 0.00 | 15 | 1012.9 |
| 20260504221032 | 80 | 242 | 11.0 | 15.0 | 0.00 | 0.00 | 0.00 | 16 | 1013.0 |
| 20260504220530 | 79 | 281 | 8.0 | 16.0 | 0.00 | 0.00 | 0.00 | 16 | 1012.9 |
| 20260504220043 | 79 | 247 | 8.0 | 15.0 | 0.00 | 0.00 | 0.00 | 15 | 1013.1 |
| 20260504215529 | 79 | 252 | 7.0 | 15.0 | 0.00 | 0.00 | 0.00 | 16 | 1013.2 |
| 20260504215029 | 79 | 259 | 9.0 | 15.0 | 0.00 | 0.00 | 0.00 | 16 | 1013.2 |
| 20260504214533 | 79 | 281 | 8.0 | 20.0 | 0.00 | 0.00 | 0.00 | 17 | 1013.3 |
| 20260504214030 | 79 | 250 | 8.0 | 21.0 | 0.00 | 0.00 | 0.00 | 17 | 1013.2 |
| 20260504213527 | 79 | 244 | 13.0 | 21.0 | 0.00 | 0.00 | 0.00 | 17 | 1013.3 |
| 20260504213026 | 79 | 203 | 7.0 | 18.0 | 0.00 | 0.00 | 0.00 | 18 | 1013.3 |
| 20260504212526 | 79 | 296 | 9.0 | 20.0 | 0.00 | 0.00 | 0.00 | 18 | 1013.5 |
| 20260504212026 | 79 | 257 | 9.0 | 20.0 | 0.00 | 0.00 | 0.00 | 18 | 1013.5 |
| 20260504211533 | 79 | 300 | 7.0 | 16.0 | 0.00 | 0.00 | 0.00 | 17 | 1013.6 |
| 20260504211024 | 80 | 315 | 8.0 | 16.0 | 0.00 | 0.00 | 0.00 | 18 | 1013.7 |
| 20260504210523 | 80 | 259 | 7.0 | 16.0 | 0.00 | 0.00 | 0.00 | 17 | 1013.7 |
| 20260504210022 | 80 | 240 | 8.0 | 15.0 | 0.00 | 0.00 | 0.00 | 18 | 1013.7 |
| 20260504205522 | 79 | 242 | 9.0 | 15.0 | 0.00 | 0.00 | 0.00 | 19 | 1013.9 |
| 20260504205020 | 79 | 270 | 5.0 | 19.0 | 0.00 | 0.00 | 0.00 | 19 | 1013.9 |
| 20260504204534 | 79 | 243 | 10.0 | 19.0 | 0.00 | 0.00 | 0.00 | 19 | 1013.9 |
| 20260504204019 | 80 | 256 | 7.0 | 18.0 | 0.00 | 0.00 | 0.00 | 19 | 1014.0 |
| 20260504203519 | 80 | 205 | 8.0 | 16.0 | 0.00 | 0.00 | 0.00 | 20 | 1014.1 |
| 20260504203018 | 79 | 201 | 9.0 | 16.0 | 0.00 | 0.00 | 0.00 | 20 | 1014.1 |
| 20260504202517 | 79 | 223 | 6.0 | 13.0 | 0.00 | 0.00 | 0.00 | 21 | 1014.2 |
| 20260504202015 | 78 | 205 | 8.0 | 14.0 | 0.00 | 0.00 | 0.00 | 21 | 1014.1 |
| 20260504201514 | 78 | 240 | 8.0 | 13.0 | 0.00 | 0.00 | 0.00 | 21 | 1014.3 |
| 20260504201013 | 78 | 233 | 6.0 | 13.0 | 0.00 | 0.00 | 0.00 | 20 | 1014.3 |
| 20260504200513 | 77 | 193 | 4.0 | 10.0 | 0.00 | 0.00 | 0.00 | 21 | 1014.4 |
| 20260504200011 | 76 | 199 | 5.0 | 11.0 | 0.00 | 0.00 | 0.00 | 19 | 1014.6 |
| 20260504195511 | 76 | 276 | 7.0 | 11.0 | 0.00 | 0.00 | 0.00 | 21 | 1014.7 |
| 20260504195010 | 76 | 223 | 5.0 | 12.0 | 0.00 | 0.00 | 0.00 | 21 | 1014.9 |
| 20260504194509 | 76 | 238 | 7.0 | 16.0 | 0.00 | 0.00 | 0.00 | 21 | 1014.9 |
| 20260504194011 | 75 | 248 | 9.0 | 16.0 | 0.00 | 0.00 | 0.00 | 20 | 1015.0 |
| 20260504193509 | 75 | 250 | 8.0 | 15.0 | 0.00 | 0.00 | 0.00 | 21 | 1015.0 |
| 20260504193005 | 75 | 265 | 8.0 | 13.0 | 0.00 | 0.00 | 0.00 | 22 | 1015.0 |
| 20260504192504 | 75 | 220 | 6.0 | 10.0 | 0.00 | 0.00 | 0.00 | 25 | 1015.0 |
| 20260504192006 | 75 | 254 | 5.0 | 13.0 | 0.00 | 0.00 | 0.00 | 24 | 1014.9 |
| 20260504191505 | 75 | 186 | 7.0 | 13.0 | 0.00 | 0.00 | 0.00 | 25 | 1015.0 |
| 20260504191005 | 75 | 198 | 5.0 | 10.0 | 0.00 | 0.00 | 0.00 | 24 | 1015.1 |
| 20260504190503 | 74 | 328 | 3.0 | 9.0 | 0.00 | 0.00 | 0.00 | 26 | 1015.2 |
| 20260504190002 | 73 | 281 | 4.0 | 10.0 | 0.00 | 0.00 | 0.00 | 25 | 1015.2 |
| 20260504185601 | 73 | 222 | 6.0 | 10.0 | 0.00 | 0.00 | 0.00 | 27 | 1015.3 |
| 20260504185058 | 72 | 225 | 4.0 | 9.0 | 0.00 | 0.00 | 0.00 | 28 | 1015.5 |
| 20260504184557 | 72 | 241 | 5.0 | 10.0 | 0.00 | 0.00 | 0.00 | 28 | 1015.4 |
| 20260504184059 | 71 | 272 | 5.0 | 10.0 | 0.00 | 0.00 | 0.00 | 28 | 1015.6 |
| 20260504183555 | 71 | 234 | 6.0 | 11.0 | 0.00 | 0.00 | 0.00 | 29 | 1015.5 |
| 20260504183100 | 71 | 222 | 5.0 | 10.0 | 0.00 | 0.00 | 0.00 | 29 | 1015.6 |
| 20260504182553 | 71 | 220 | 6.0 | 13.0 | 0.00 | 0.00 | 0.00 | 29 | 1015.6 |
| 20260504182053 | 71 | 185 | 6.0 | 13.0 | 0.00 | 0.00 | 0.00 | 29 | 1015.7 |
| 20260504181552 | 70 | 259 | 8.0 | 13.0 | 0.00 | 0.00 | 0.00 | 30 | 1015.7 |
| 20260504181052 | 70 | 244 | 7.0 | 13.0 | 0.00 | 0.00 | 0.00 | 31 | 1015.7 |
| 20260504180552 | 70 | 292 | 7.0 | 14.0 | 0.00 | 0.00 | 0.00 | 31 | 1015.8 |
| 20260504180130 | 70 | 241 | 9.0 | 14.0 | 0.00 | 0.00 | 0.00 | 31 | 1015.9 |
| 20260504175551 | 70 | 250 | 7.0 | 12.0 | 0.00 | 0.00 | 0.00 | 32 | 1016.0 |
| 20260504175051 | 70 | 259 | 7.0 | 11.0 | 0.00 | 0.00 | 0.00 | 32 | 1016.2 |
| 20260504174548 | 70 | 252 | 4.0 | 11.0 | 0.00 | 0.00 | 0.00 | 34 | 1016.3 |
| 20260504174048 | 70 | 251 | 6.0 | 10.0 | 0.00 | 0.00 | 0.00 | 33 | 1016.4 |
| 20260504173546 | 70 | 270 | 3.0 | 11.0 | 0.00 | 0.00 | 0.00 | 33 | 1016.4 |
| 20260504173047 | 69 | 240 | 6.0 | 11.0 | 0.00 | 0.00 | 0.00 | 33 | 1016.3 |
| 20260504172546 | 69 | 206 | 1.0 | 10.0 | 0.00 | 0.00 | 0.00 | 34 | 1016.4 |
| 20260504172045 | 69 | 263 | 6.0 | 10.0 | 0.00 | 0.00 | 0.00 | 33 | 1016.4 |
| 20260504171549 | 69 | 210 | 2.0 | 6.0 | 0.00 | 0.00 | 0.00 | 34 | 1016.5 |
| 20260504171045 | 69 | 123 | 1.0 | 9.0 | 0.00 | 0.00 | 0.00 | 34 | 1016.5 |
| 20260504170543 | 69 | 281 | 5.0 | 9.0 | 0.00 | 0.00 | 0.00 | 34 | 1016.5 |
| 20260504151023 | 64 | 159 | 0.0 | 2.0 | 0.00 | 0.00 | 0.00 | 45 | 1016.4 |
| 20260504150523 | 64 | 159 | 0.0 | 2.0 | 0.00 | 0.00 | 0.00 | 42 | 1016.5 |
| 20260504141017 | 64 | 251 | 3.0 | 7.0 | 0.00 | 0.00 | 0.00 | 38 | 1016.5 |
| 20260504140516 | 64 | 296 | 3.0 | 7.0 | 0.00 | 0.00 | 0.00 | 38 | 1016.4 |
| 20260504130531 | 65 | 250 | 2.0 | 6.0 | 0.00 | 0.00 | 0.00 | 34 | 1016.2 |
| 20260504110516 | 63 | 276 | 2.0 | 5.0 | 0.00 | 0.00 | 0.00 | 40 | 1014.3 |
| 20260504100508 | 60 | 207 | 0.0 | 2.0 | 0.00 | 0.00 | 0.00 | 55 | 1014.4 |
| 20260504082001 | 62 | 207 | 0.0 | 0.0 | 0.00 | 0.00 | 0.00 | 55 | 1014.4 |
| 20260504081601 | 61 | 207 | 0.0 | 2.0 | 0.00 | 0.00 | 0.00 | 56 | 1014.4 |
| 20260504081100 | 61 | 207 | 0.0 | 2.0 | 0.00 | 0.00 | 0.00 | 58 | 1014.6 |
| 20260504080559 | 62 | 207 | 0.0 | 1.0 | 0.00 | 0.00 | 0.00 | 56 | 1014.6 |
| 20260504050543 | 64 | 126 | 0.0 | 1.0 | 0.00 | 0.00 | 0.00 | 50 | 1015.4 |
| 20260504045542 | 64 | 126 | 0.0 | 1.0 | 0.00 | 0.00 | 0.00 | 51 | 1015.3 |
| 20260504045042 | 64 | 126 | 0.0 | 1.0 | 0.00 | 0.00 | 0.00 | 50 | 1015.4 |
| 20260504044542 | 64 | 126 | 0.0 | 1.0 | 0.00 | 0.00 | 0.00 | 49 | 1015.4 |
| 20260504044043 | 64 | 126 | 0.0 | 1.0 | 0.00 | 0.00 | 0.00 | 50 | 1015.3 |
| 20260504043542 | 65 | 126 | 0.0 | 1.0 | 0.00 | 0.00 | 0.00 | 51 | 1015.2 |
| 20260504043049 | 64 | 126 | 0.0 | 4.0 | 0.00 | 0.00 | 0.00 | 51 | 1015.2 |
| 20260504042540 | 64 | 126 | 0.0 | 4.0 | 0.00 | 0.00 | 0.00 | 53 | 1015.3 |
| 20260504042044 | 64 | 126 | 1.0 | 2.0 | 0.00 | 0.00 | 0.00 | 53 | 1015.2 |
| 20260504041541 | 64 | 126 | 0.0 | 2.0 | 0.00 | 0.00 | 0.00 | 52 | 1015.2 |
| 20260504041041 | 64 | 126 | 0.0 | 4.0 | 0.00 | 0.00 | 0.00 | 52 | 1015.2 |
| 20260504040540 | 64 | 126 | 1.0 | 3.0 | 0.00 | 0.00 | 0.00 | 54 | 1015.1 |
| 20260504040041 | 64 | 126 | 0.0 | 2.0 | 0.00 | 0.00 | 0.00 | 53 | 1015.1 |
| 20260504035540 | 64 | 126 | 0.0 | 2.0 | 0.00 | 0.00 | 0.00 | 53 | 1015.2 |
| 20260504035044 | 64 | 126 | 0.0 | 2.0 | 0.00 | 0.00 | 0.00 | 53 | 1015.1 |
| 20260504034547 | 65 | 126 | 1.0 | 3.0 | 0.00 | 0.00 | 0.00 | 52 | 1015.1 |
| 20260504034039 | 65 | 126 | 1.0 | 4.0 | 0.00 | 0.00 | 0.00 | 51 | 1015.2 |
| 20260504033539 | 65 | 126 | 0.0 | 1.0 | 0.00 | 0.00 | 0.00 | 52 | 1015.2 |
| 20260504033041 | 66 | 126 | 0.0 | 2.0 | 0.00 | 0.00 | 0.00 | 51 | 1015.2 |
| 20260504032539 | 66 | 126 | 0.0 | 2.0 | 0.00 | 0.00 | 0.00 | 49 | 1015.1 |
| 20260504032043 | 66 | 126 | 0.0 | 1.0 | 0.00 | 0.00 | 0.00 | 49 | 1015.1 |
| 20260504031539 | 66 | 126 | 0.0 | 2.0 | 0.00 | 0.00 | 0.00 | 49 | 1015.1 |
| 20260504031039 | 66 | 126 | 0.0 | 4.0 | 0.00 | 0.00 | 0.00 | 49 | 1015.0 |
| 20260504030538 | 67 | 126 | 0.0 | 4.0 | 0.00 | 0.00 | 0.00 | 48 | 1015.0 |
| 20260504030045 | 67 | 126 | 1.0 | 2.0 | 0.00 | 0.00 | 0.00 | 48 | 1015.1 |
| 20260504025538 | 67 | 126 | 0.0 | 2.0 | 0.00 | 0.00 | 0.00 | 47 | 1015.0 |
| 20260504025038 | 67 | 126 | 0.0 | 4.0 | 0.00 | 0.00 | 0.00 | 47 | 1015.1 |
| 20260504024537 | 68 | 126 | 1.0 | 4.0 | 0.00 | 0.00 | 0.00 | 47 | 1015.1 |
| 20260504024038 | 68 | 135 | 1.0 | 4.0 | 0.00 | 0.00 | 0.00 | 46 | 1015.0 |
| 20260504023537 | 69 | 135 | 1.0 | 4.0 | 0.00 | 0.00 | 0.00 | 44 | 1015.1 |
| 20260504023038 | 69 | 135 | 0.0 | 5.0 | 0.00 | 0.00 | 0.00 | 43 | 1015.0 |
| 20260504022538 | 70 | 135 | 0.0 | 5.0 | 0.00 | 0.00 | 0.00 | 43 | 1015.0 |
| 20260504022038 | 71 | 137 | 1.0 | 5.0 | 0.00 | 0.00 | 0.00 | 40 | 1014.9 |
| 20260504021537 | 72 | 147 | 1.0 | 5.0 | 0.00 | 0.00 | 0.00 | 39 | 1014.9 |
| 20260504021037 | 72 | 141 | 3.0 | 5.0 | 0.00 | 0.00 | 0.00 | 39 | 1014.8 |
| 20260504020537 | 72 | 155 | 1.0 | 5.0 | 0.00 | 0.00 | 0.00 | 38 | 1014.9 |
| 20260504020043 | 72 | 153 | 3.0 | 5.0 | 0.00 | 0.00 | 0.00 | 38 | 1014.9 |
| 20260504015536 | 73 | 159 | 2.0 | 5.0 | 0.00 | 0.00 | 0.00 | 38 | 1014.8 |
| 20260504015037 | 73 | 145 | 2.0 | 6.0 | 0.00 | 0.00 | 0.00 | 37 | 1014.8 |
| 20260504014543 | 73 | 159 | 1.0 | 6.0 | 0.00 | 0.00 | 0.00 | 38 | 1014.7 |
| 20260504014036 | 73 | 167 | 3.0 | 6.0 | 0.00 | 0.00 | 0.00 | 38 | 1014.8 |
| 20260504013536 | 73 | 161 | 1.0 | 4.0 | 0.00 | 0.00 | 0.00 | 37 | 1014.7 |
| 20260504013037 | 73 | 161 | 0.0 | 5.0 | 0.00 | 0.00 | 0.00 | 37 | 1014.7 |
| 20260504012536 | 74 | 155 | 2.0 | 5.0 | 0.00 | 0.00 | 0.00 | 36 | 1014.8 |
| 20260504012041 | 74 | 160 | 1.0 | 6.0 | 0.00 | 0.00 | 0.00 | 36 | 1014.7 |
| 20260504011536 | 74 | 168 | 4.0 | 6.0 | 0.00 | 0.00 | 0.00 | 36 | 1014.7 |
| 20260504011034 | 74 | 159 | 2.0 | 6.0 | 0.00 | 0.00 | 0.00 | 36 | 1014.7 |
| 20260504010534 | 74 | 159 | 4.0 | 6.0 | 0.00 | 0.00 | 0.00 | 36 | 1014.8 |
| 20260504010033 | 74 | 147 | 0.0 | 4.0 | 0.00 | 0.00 | 0.00 | 36 | 1014.8 |
| 20260504005532 | 74 | 144 | 0.0 | 6.0 | 0.00 | 0.00 | 0.00 | 36 | 1015.0 |
| 20260504005034 | 74 | 137 | 1.0 | 6.0 | 0.00 | 0.00 | 0.00 | 35 | 1014.9 |
| 20260504004534 | 74 | 152 | 1.0 | 5.0 | 0.00 | 0.00 | 0.00 | 36 | 1014.9 |
| 20260504004031 | 74 | 158 | 2.0 | 5.0 | 0.00 | 0.00 | 0.00 | 35 | 1015.0 |
| 20260504003531 | 74 | 165 | 2.0 | 8.0 | 0.00 | 0.00 | 0.00 | 34 | 1015.1 |
| 20260504003030 | 75 | 133 | 4.0 | 8.0 | 0.00 | 0.00 | 0.00 | 35 | 1015.1 |
| 20260504002530 | 75 | 165 | 3.0 | 8.0 | 0.00 | 0.00 | 0.00 | 35 | 1015.1 |
| 20260504002030 | 75 | 181 | 4.0 | 8.0 | 0.00 | 0.00 | 0.00 | 35 | 1015.2 |
| 20260504001532 | 75 | 155 | 3.0 | 10.0 | 0.00 | 0.00 | 0.00 | 35 | 1015.1 |
| 20260504001033 | 75 | 177 | 5.0 | 11.0 | 0.00 | 0.00 | 0.00 | 35 | 1015.2 |
| 20260504000529 | 75 | 142 | 6.0 | 11.0 | 0.00 | 0.00 | 0.00 | 34 | 1015.1 |
| 20260504000028 | 75 | 157 | 4.0 | 8.0 | 0.00 | 0.00 | 0.00 | 35 | 1015.2 |
| 20260503235528 | 75 | 180 | 4.0 | 8.0 | 0.00 | 0.00 | 0.00 | 34 | 1015.2 |
| 20260503235028 | 75 | 144 | 2.0 | 9.0 | 0.00 | 0.00 | 0.00 | 35 | 1015.3 |